When you browse on this site, cookies collect data to enhance your experience and personalize the content and advertising you see.
Visit our Privacy Policy to learn more. By continuing to use the site, you agree to this use of cookies and data.
  • In Latvia
  • List of Countries
  • For 7 days
  • Water Temperature
  • Weather Map
  • Weather Widgets
  • user-avatar
    Login

    Hourly Weather Lugovskoy

    Today, 19 August, Monday

    Time Temperature Precipitation Wind Pressure Humidity
    00:00 +22°C° 0 mm 3 mps 751 mmHg 46%
    01:00 +22°C° 0 mm 3 mps 751 mmHg 47%
    02:00 +21°C° 0 mm 3 mps 751 mmHg 48%
    03:00 +21°C° 0 mm 3 mps 752 mmHg 50%
    04:00 +21°C° 0 mm 3 mps 752 mmHg 53%
    05:00 +21°C° 0 mm 3 mps 752 mmHg 56%
    06:00 +21°C° 0 mm 3 mps 752 mmHg 59%
    07:00 +24°C° 0 mm 3 mps 752 mmHg 55%
    08:00 +26°C° 0 mm 4 mps 752 mmHg 52%
    09:00 +27°C° 0 mm 4 mps 752 mmHg 48%
    10:00 +29°C° 0 mm 4 mps 752 mmHg 45%
    11:00 +30°C° 0 mm 5 mps 752 mmHg 42%
    12:00 +32°C° 0 mm 5 mps 752 mmHg 39%
    13:00 +32°C° 0 mm 5 mps 752 mmHg 40%
    14:00 +33°C° 0 mm 4 mps 752 mmHg 40%
    15:00 +33°C° 0 mm 4 mps 752 mmHg 41%
    16:00 +31°C° 0 mm 3 mps 752 mmHg 45%
    17:00 +29°C° 0 mm 2 mps 752 mmHg 49%
    18:00 +28°C° 0 mm 2 mps 752 mmHg 53%
    19:00 +27°C° 0 mm 1 mps 752 mmHg 53%
    20:00 +26°C° 0 mm 1 mps 752 mmHg 52%
    21:00 +23°C° 0 mm 0 mps 752 mmHg 51%
    22:00 +24°C° 0 mm 1 mps 752 mmHg 54%
    23:00 +24°C° 0 mm 1 mps 752 mmHg 56%

    Tomorrow, 20 August, Tuesday

    Time Temperature Precipitation Wind Pressure Humidity
    00:00 +23°C° 0 mm 1 mps 752 mmHg 59%
    01:00 +23°C° 0 mm 1 mps 752 mmHg 64%
    02:00 +22°C° 0 mm 1 mps 753 mmHg 69%
    03:00 +22°C° 0 mm 1 mps 753 mmHg 74%
    04:00 +21°C° 0 mm 2 mps 753 mmHg 79%
    05:00 +21°C° 0 mm 2 mps 753 mmHg 84%
    06:00 +21°C° 0 mm 2 mps 753 mmHg 89%
    07:00 +24°C° 0 mm 2 mps 753 mmHg 83%
    08:00 +25°C° 0 mm 2 mps 753 mmHg 77%
    09:00 +27°C° 0 mm 3 mps 753 mmHg 71%
    10:00 +27°C° 0 mm 3 mps 753 mmHg 67%
    11:00 +28°C° 0 mm 3 mps 753 mmHg 63%
    12:00 +29°C° 0 mm 2 mps 753 mmHg 60%
    13:00 +29°C° 0 mm 2 mps 753 mmHg 58%
    14:00 +29°C° 0 mm 2 mps 753 mmHg 57%
    15:00 +29°C° 0 mm 2 mps 753 mmHg 56%
    16:00 +28°C° 0 mm 2 mps 753 mmHg 61%
    17:00 +27°C° 0 mm 2 mps 753 mmHg 66%
    18:00 +26°C° 0 mm 2 mps 753 mmHg 71%
    19:00 +25°C° 0 mm 2 mps 753 mmHg 73%
    20:00 +23°C° 0 mm 2 mps 753 mmHg 75%
    21:00 +21°C° 0 mm 2 mps 754 mmHg 77%
    22:00 +21°C° 0 mm 2 mps 754 mmHg 81%
    23:00 +20°C° 0 mm 2 mps 754 mmHg 84%

    Day after tomorrow, 21 August, Wednesday

    Time Temperature Precipitation Wind Pressure Humidity
    00:00 +19°C° 0 mm 2 mps 754 mmHg 88%
    01:00 +19°C° 0 mm 2 mps 754 mmHg 90%
    02:00 +19°C° 0 mm 2 mps 754 mmHg 92%
    03:00 +18°C° 0 mm 2 mps 754 mmHg 94%
    04:00 +18°C° 0 mm 2 mps 754 mmHg 93%
    05:00 +19°C° 0 mm 2 mps 754 mmHg 92%
    06:00 +19°C° 0 mm 2 mps 754 mmHg 92%
    07:00 +20°C° 0 mm 3 mps 755 mmHg 85%
    08:00 +22°C° 0 mm 3 mps 755 mmHg 78%
    09:00 +24°C° 0 mm 3 mps 755 mmHg 71%
    10:00 +25°C° 0 mm 3 mps 755 mmHg 68%
    11:00 +26°C° 0 mm 4 mps 755 mmHg 65%
    12:00 +27°C° 0 mm 4 mps 755 mmHg 62%
    13:00 +27°C° 0 mm 4 mps 754 mmHg 62%
    14:00 +27°C° 0 mm 4 mps 754 mmHg 61%
    15:00 +27°C° 0 mm 4 mps 754 mmHg 61%
    16:00 +26°C° 0 mm 3 mps 754 mmHg 65%
    17:00 +25°C° 0 mm 3 mps 754 mmHg 69%
    18:00 +25°C° 0 mm 3 mps 754 mmHg 74%
    19:00 +23°C° 0 mm 2 mps 754 mmHg 78%
    20:00 +21°C° 0 mm 2 mps 754 mmHg 83%
    21:00 +20°C° 0 mm 2 mps 755 mmHg 87%
    22:00 +20°C° 0 mm 2 mps 755 mmHg 89%
    23:00 +19°C° 0 mm 2 mps 755 mmHg 90%

    22 August, Thursday

    Time Temperature Precipitation Wind Pressure Humidity
    00:00 +20°C° 0 mm 1 mps 755 mmHg 92%
    01:00 +20°C° 0 mm 1 mps 755 mmHg 92%
    02:00 +19°C° 0 mm 1 mps 755 mmHg 93%
    03:00 +19°C° 0 mm 1 mps 755 mmHg 93%
    04:00 +19°C° 0 mm 1 mps 755 mmHg 92%
    05:00 +20°C° 0 mm 1 mps 755 mmHg 91%
    06:00 +20°C° 0 mm 1 mps 755 mmHg 90%
    07:00 +22°C° 0 mm 1 mps 755 mmHg 84%
    08:00 +23°C° 0 mm 2 mps 755 mmHg 78%
    09:00 +24°C° 0 mm 2 mps 755 mmHg 73%
    10:00 +25°C° 0 mm 2 mps 755 mmHg 69%
    11:00 +26°C° 0 mm 2 mps 755 mmHg 65%
    12:00 +27°C° 0 mm 2 mps 754 mmHg 62%
    13:00 +27°C° 0 mm 2 mps 754 mmHg 60%
    14:00 +27°C° 0 mm 2 mps 754 mmHg 59%
    15:00 +27°C° 0 mm 2 mps 754 mmHg 58%
    16:00 +26°C° 0 mm 1 mps 753 mmHg 62%
    17:00 +26°C° 0 mm 1 mps 753 mmHg 67%
    18:00 +25°C° 0 mm 1 mps 753 mmHg 71%
    19:00 +24°C° 0 mm 1 mps 753 mmHg 74%
    20:00 +22°C° 0 mm 1 mps 753 mmHg 76%
    21:00 +19°C° 0 mm 0 mps 753 mmHg 79%
    22:00 +19°C° 0 mm 0 mps 753 mmHg 79%
    23:00 +19°C° 0 mm 0 mps 753 mmHg 80%

    23 August, Friday

    Time Temperature Precipitation Wind Pressure Humidity
    00:00 +18°C° 0 mm 0 mps 753 mmHg 81%
    01:00 +18°C° 0 mm 0 mps 753 mmHg 81%
    02:00 +20°C° 0 mm 1 mps 753 mmHg 82%
    03:00 +20°C° 0 mm 1 mps 753 mmHg 83%
    04:00 +20°C° 0 mm 1 mps 753 mmHg 82%
    05:00 +21°C° 0 mm 1 mps 753 mmHg 81%
    06:00 +21°C° 0 mm 1 mps 752 mmHg 80%
    07:00 +23°C° 0 mm 1 mps 752 mmHg 74%
    08:00 +24°C° 0 mm 1 mps 752 mmHg 68%
    09:00 +26°C° 0 mm 1 mps 752 mmHg 62%
    10:00 +27°C° 0 mm 1 mps 752 mmHg 59%
    11:00 +28°C° 0 mm 1 mps 752 mmHg 55%
    12:00 +29°C° 0 mm 2 mps 752 mmHg 52%
    13:00 +29°C° 0 mm 2 mps 751 mmHg 51%
    14:00 +29°C° 0 mm 2 mps 751 mmHg 50%
    15:00 +30°C° 0 mm 2 mps 751 mmHg 49%
    16:00 +29°C° 0.3 mm 2 mps 751 mmHg 55%
    17:00 +27°C° 0.3 mm 2 mps 751 mmHg 62%
    18:00 +26°C° 0.3 mm 2 mps 750 mmHg 69%
    19:00 +25°C° 0 mm 2 mps 750 mmHg 73%
    20:00 +24°C° 0 mm 1 mps 750 mmHg 77%
    21:00 +23°C° 0 mm 1 mps 750 mmHg 81%
    22:00 +21°C° 0.4 mm 2 mps 750 mmHg 84%
    23:00 +21°C° 0.4 mm 2 mps 750 mmHg 87%

    24 August, Saturday

    Time Temperature Precipitation Wind Pressure Humidity
    00:00 +20°C° 0.4 mm 2 mps 750 mmHg 90%
    01:00 +20°C° 0.7 mm 3 mps 749 mmHg 92%
    02:00 +19°C° 0.7 mm 3 mps 749 mmHg 94%
    03:00 +19°C° 0.7 mm 3 mps 749 mmHg 97%
    04:00 +19°C° 0.9 mm 3 mps 749 mmHg 96%
    05:00 +19°C° 0.9 mm 3 mps 749 mmHg 96%
    06:00 +19°C° 0.9 mm 3 mps 749 mmHg 96%
    07:00 +19°C° 0.1 mm 3 mps 749 mmHg 95%
    08:00 +19°C° 0.1 mm 3 mps 750 mmHg 93%
    09:00 +19°C° 0.1 mm 4 mps 750 mmHg 92%
    10:00 +20°C° 0.2 mm 4 mps 750 mmHg 87%
    11:00 +21°C° 0.2 mm 4 mps 750 mmHg 82%
    12:00 +22°C° 0.2 mm 4 mps 750 mmHg 77%
    13:00 +22°C° 0.2 mm 4 mps 750 mmHg 73%
    14:00 +22°C° 0.2 mm 4 mps 750 mmHg 69%
    15:00 +23°C° 0.2 mm 4 mps 750 mmHg 66%
    16:00 +22°C° 0 mm 4 mps 751 mmHg 69%
    17:00 +21°C° 0 mm 3 mps 751 mmHg 72%
    18:00 +20°C° 0 mm 3 mps 751 mmHg 75%
    19:00 +19°C° 0 mm 3 mps 751 mmHg 77%
    20:00 +18°C° 0 mm 3 mps 751 mmHg 78%
    21:00 +17°C° 0 mm 3 mps 751 mmHg 79%
    22:00 +16°C° 0 mm 3 mps 751 mmHg 80%
    23:00 +15°C° 0 mm 4 mps 751 mmHg 81%
    Show more